Time,TemperatureF,DewpointF,PressureIn,WindDirection,WindDirectionDegrees,WindSpeedMPH,WindSpeedGustMPH,Humidity,HourlyPrecipIn,Conditions,Clouds,dailyrainin,SoftwareType,DateUTC
2013-01-10 00:03:00,68.0,66.2,30.01,SE,146,7.0,24.0,94,0.00,,,0.29,Wunderground v.1.15,2013-01-10 10:03:00,
2013-01-10 00:09:00,68.1,66.3,30.01,SSE,153,8.0,24.0,94,0.00,,,0.29,Wunderground v.1.15,2013-01-10 10:09:00,
2013-01-10 00:14:00,68.1,66.3,30.01,SSE,155,9.0,17.0,94,0.00,,,0.29,Wunderground v.1.15,2013-01-10 10:14:00,
2013-01-10 00:20:00,68.1,66.3,30.01,SSE,157,5.0,19.0,94,0.00,,,0.29,Wunderground v.1.15,2013-01-10 10:20:00,
2013-01-10 00:26:00,68.1,66.3,30.01,South,174,5.0,19.0,94,0.00,,,0.29,Wunderground v.1.15,2013-01-10 10:26:00,
2013-01-10 00:31:00,68.1,66.0,30.01,SSE,150,5.0,19.0,93,0.00,,,0.29,Wunderground v.1.15,2013-01-10 10:31:00,
2013-01-10 00:37:00,68.1,66.0,30.01,SSE,165,5.0,19.0,93,0.00,,,0.29,Wunderground v.1.15,2013-01-10 10:37:00,
2013-01-10 00:43:00,68.0,65.9,30.01,SSE,164,4.0,12.0,93,0.00,,,0.29,Wunderground v.1.15,2013-01-10 10:43:00,
2013-01-10 00:49:00,68.0,65.9,30.01,SE,144,3.0,12.0,93,0.00,,,0.29,Wunderground v.1.15,2013-01-10 10:49:00,
2013-01-10 00:54:00,67.9,65.8,30.01,SE,128,3.0,11.0,93,0.00,,,0.29,Wunderground v.1.15,2013-01-10 10:54:00,
2013-01-10 01:00:00,67.9,65.8,30.01,SSE,147,4.0,4.0,93,0.00,,,0.30,Wunderground v.1.15,2013-01-10 11:00:00,
2013-01-10 01:05:00,67.9,65.8,30.01,ESE,114,4.0,11.0,93,0.00,,,0.00,Wunderground v.1.15,2013-01-10 11:05:00,
2013-01-10 01:11:00,67.8,65.7,30.01,SSE,155,4.0,11.0,93,0.00,,,0.00,Wunderground v.1.15,2013-01-10 11:11:00,
2013-01-10 01:16:00,67.8,65.7,30.01,SE,139,5.0,12.0,93,0.00,,,0.00,Wunderground v.1.15,2013-01-10 11:16:00,
2013-01-10 01:22:00,67.9,65.8,30.01,SE,145,6.0,15.0,93,0.00,,,0.00,Wunderground v.1.15,2013-01-10 11:22:00,
2013-01-10 01:27:00,67.8,65.7,30.01,SE,144,5.0,15.0,93,0.00,,,0.00,Wunderground v.1.15,2013-01-10 11:27:00,
2013-01-10 01:33:00,67.8,65.7,30.01,SE,146,5.0,18.0,93,0.00,,,0.00,Wunderground v.1.15,2013-01-10 11:33:00,
2013-01-10 01:39:00,67.8,65.7,30.01,SSE,153,5.0,18.0,93,0.00,,,0.00,Wunderground v.1.15,2013-01-10 11:39:00,
2013-01-10 01:45:00,67.8,65.7,30.00,SE,141,5.0,18.0,93,0.00,,,0.00,Wunderground v.1.15,2013-01-10 11:45:00,
2013-01-10 01:51:00,67.9,65.8,30.00,SE,146,4.0,11.0,93,0.00,,,0.00,Wunderground v.1.15,2013-01-10 11:51:00,
2013-01-10 01:56:00,67.9,65.8,30.00,SSE,154,5.0,11.0,93,0.00,,,0.00,Wunderground v.1.15,2013-01-10 11:56:00,
2013-01-10 02:01:00,67.9,65.8,30.00,South,185,5.0,14.0,93,0.00,,,0.00,Wunderground v.1.15,2013-01-10 12:01:00,
2013-01-10 02:07:00,67.8,65.7,30.00,South,181,3.0,14.0,93,0.00,,,0.00,Wunderground v.1.15,2013-01-10 12:07:00,
2013-01-10 02:12:00,67.8,65.7,30.00,South,179,4.0,14.0,93,0.00,,,0.00,Wunderground v.1.15,2013-01-10 12:12:00,
2013-01-10 02:18:00,67.7,65.6,30.00,South,172,5.0,16.0,93,0.00,,,0.00,Wunderground v.1.15,2013-01-10 12:18:00,
2013-01-10 02:23:00,67.7,65.6,30.00,South,186,5.0,16.0,93,0.00,,,0.00,Wunderground v.1.15,2013-01-10 12:23:00,
2013-01-10 02:29:00,67.7,65.6,30.00,SE,138,5.0,16.0,93,0.00,,,0.00,Wunderground v.1.15,2013-01-10 12:29:00,
2013-01-10 02:35:00,67.7,65.6,30.00,SSE,161,5.0,16.0,93,0.00,,,0.00,Wunderground v.1.15,2013-01-10 12:35:00,
2013-01-10 02:40:00,67.7,65.3,30.00,SSE,150,4.0,11.0,92,0.00,,,0.00,Wunderground v.1.15,2013-01-10 12:40:00,
2013-01-10 02:46:00,67.6,65.2,29.99,SE,144,4.0,11.0,92,0.00,,,0.00,Wunderground v.1.15,2013-01-10 12:46:00,
2013-01-10 02:52:00,67.6,65.2,29.99,South,190,4.0,10.0,92,0.00,,,0.00,Wunderground v.1.15,2013-01-10 12:52:00,
2013-01-10 02:57:00,67.6,65.2,29.99,SE,146,5.0,10.0,92,0.00,,,0.00,Wunderground v.1.15,2013-01-10 12:57:00,
2013-01-10 03:03:00,67.6,65.2,30.00,South,185,4.0,10.0,92,0.00,,,0.00,Wunderground v.1.15,2013-01-10 13:03:00,
2013-01-10 03:09:00,67.7,65.3,30.00,SE,137,3.0,10.0,92,0.00,,,0.00,Wunderground v.1.15,2013-01-10 13:09:00,
2013-01-10 03:14:00,67.8,65.7,30.00,South,176,5.0,10.0,93,0.00,,,0.00,Wunderground v.1.15,2013-01-10 13:14:00,
2013-01-10 03:20:00,67.8,65.7,30.00,SSE,150,5.0,15.0,93,0.00,,,0.00,Wunderground v.1.15,2013-01-10 13:20:00,
2013-01-10 03:26:00,67.7,65.6,29.99,SSE,164,4.0,15.0,93,0.00,,,0.00,Wunderground v.1.15,2013-01-10 13:26:00,
2013-01-10 03:31:00,67.7,65.3,29.99,SSE,163,4.0,11.0,92,0.00,,,0.00,Wunderground v.1.15,2013-01-10 13:31:00,
2013-01-10 03:37:00,67.5,65.1,29.99,SE,142,4.0,11.0,92,0.00,,,0.00,Wunderground v.1.15,2013-01-10 13:37:00,
2013-01-10 03:43:00,67.4,65.0,29.99,SE,142,2.0,11.0,92,0.00,,,0.00,Wunderground v.1.15,2013-01-10 13:43:00,
2013-01-10 03:48:00,67.2,64.8,29.99,SE,142,2.0,11.0,92,0.00,,,0.00,Wunderground v.1.15,2013-01-10 13:48:00,
2013-01-10 03:54:00,67.2,65.1,29.99,SSE,150,3.0,8.0,93,0.00,,,0.00,Wunderground v.1.15,2013-01-10 13:54:00,
2013-01-10 03:59:00,67.1,65.0,29.99,SSE,150,4.0,8.0,93,0.00,,,0.00,Wunderground v.1.15,2013-01-10 13:59:00,
2013-01-10 04:04:00,67.2,65.1,29.99,SE,146,4.0,9.0,93,0.00,,,0.00,Wunderground v.1.15,2013-01-10 14:04:00,
2013-01-10 04:10:00,67.4,65.6,29.99,East,95,5.0,9.0,94,0.00,,,0.00,Wunderground v.1.15,2013-01-10 14:10:00,
2013-01-10 04:16:00,67.4,65.6,29.99,SE,141,5.0,11.0,94,0.00,,,0.01,Wunderground v.1.15,2013-01-10 14:16:00,
2013-01-10 04:22:00,67.4,65.9,29.99,SE,146,5.0,11.0,95,0.00,,,0.01,Wunderground v.1.15,2013-01-10 14:22:00,
2013-01-10 04:28:00,67.3,65.5,29.99,SE,146,4.0,11.0,94,0.00,,,0.01,Wunderground v.1.15,2013-01-10 14:28:00,
2013-01-10 04:33:00,67.2,65.4,29.99,South,172,4.0,11.0,94,0.00,,,0.01,Wunderground v.1.15,2013-01-10 14:33:00,
2013-01-10 04:38:00,67.1,65.3,29.99,SSE,155,4.0,11.0,94,0.00,,,0.01,Wunderground v.1.15,2013-01-10 14:38:00,
2013-01-10 04:44:00,66.9,65.1,29.99,SSE,155,4.0,10.0,94,0.00,,,0.01,Wunderground v.1.15,2013-01-10 14:44:00,
2013-01-10 04:50:00,66.8,65.0,29.99,SSE,158,3.0,10.0,94,0.00,,,0.01,Wunderground v.1.15,2013-01-10 14:50:00,
2013-01-10 04:55:00,66.7,64.9,29.99,ESE,105,4.0,10.0,94,0.00,,,0.01,Wunderground v.1.15,2013-01-10 14:55:00,
2013-01-10 05:01:00,66.8,65.0,29.99,SE,136,5.0,9.0,94,0.00,,,0.01,Wunderground v.1.15,2013-01-10 15:01:00,
2013-01-10 05:07:00,66.8,65.0,29.99,South,173,6.0,13.0,94,0.00,,,0.01,Wunderground v.1.15,2013-01-10 15:07:00,
2013-01-10 05:12:00,66.8,64.7,29.99,SE,136,6.0,13.0,93,0.00,,,0.01,Wunderground v.1.15,2013-01-10 15:12:00,
2013-01-10 05:18:00,67.1,65.0,29.99,SE,138,7.0,21.0,93,0.00,,,0.01,Wunderground v.1.15,2013-01-10 15:18:00,
2013-01-10 05:24:00,67.2,64.8,29.99,SE,146,8.0,21.0,92,0.00,,,0.01,Wunderground v.1.15,2013-01-10 15:24:00,
2013-01-10 05:29:00,67.2,64.8,29.99,SE,141,7.0,21.0,92,0.00,,,0.01,Wunderground v.1.15,2013-01-10 15:29:00,
2013-01-10 05:35:00,67.2,64.8,29.99,ESE,123,5.0,21.0,92,0.00,,,0.01,Wunderground v.1.15,2013-01-10 15:35:00,
2013-01-10 05:41:00,67.1,64.7,29.99,SE,139,4.0,15.0,92,0.00,,,0.01,Wunderground v.1.15,2013-01-10 15:41:00,
2013-01-10 05:46:00,66.9,64.5,29.99,SE,134,4.0,15.0,92,0.00,,,0.01,Wunderground v.1.15,2013-01-10 15:46:00,
2013-01-10 05:52:00,66.7,64.3,30.00,SE,141,4.0,11.0,92,0.00,,,0.01,Wunderground v.1.15,2013-01-10 15:52:00,
2013-01-10 05:58:00,66.5,64.1,30.00,SE,141,4.0,11.0,92,0.00,,,0.01,Wunderground v.1.15,2013-01-10 15:58:00,
2013-01-10 06:03:00,66.3,63.9,30.00,SE,141,2.0,10.0,92,0.00,,,0.01,Wunderground v.1.15,2013-01-10 16:03:00,
2013-01-10 06:09:00,66.1,63.7,30.00,SE,141,1.0,10.0,92,0.00,,,0.01,Wunderground v.1.15,2013-01-10 16:09:00,
2013-01-10 06:15:00,66.1,63.7,30.00,SSE,161,2.0,10.0,92,0.00,,,0.01,Wunderground v.1.15,2013-01-10 16:15:00,
2013-01-10 06:21:00,66.0,63.6,30.00,SSE,161,2.0,7.0,92,0.00,,,0.01,Wunderground v.1.15,2013-01-10 16:21:00,
2013-01-10 06:27:00,65.9,63.5,30.00,South,175,2.0,7.0,92,0.00,,,0.01,Wunderground v.1.15,2013-01-10 16:27:00,
2013-01-10 06:32:00,65.8,63.4,30.00,South,175,3.0,8.0,92,0.00,,,0.01,Wunderground v.1.15,2013-01-10 16:32:00,
2013-01-10 06:38:00,65.8,63.4,30.00,South,172,3.0,8.0,92,0.00,,,0.01,Wunderground v.1.15,2013-01-10 16:38:00,
2013-01-10 06:43:00,65.7,63.3,30.00,South,173,3.0,8.0,92,0.00,,,0.01,Wunderground v.1.15,2013-01-10 16:43:00,
2013-01-10 06:49:00,65.7,63.6,30.00,SSE,153,4.0,8.0,93,0.00,,,0.01,Wunderground v.1.15,2013-01-10 16:49:00,
2013-01-10 06:55:00,65.9,63.8,30.00,SSE,153,5.0,8.0,93,0.00,,,0.01,Wunderground v.1.15,2013-01-10 16:55:00,
2013-01-10 07:00:00,66.0,63.6,30.01,South,173,5.0,5.0,92,0.00,,,0.01,Wunderground v.1.15,2013-01-10 17:00:00,
2013-01-10 07:05:00,66.0,63.3,30.01,SSE,159,4.0,11.0,91,0.00,,,0.01,Wunderground v.1.15,2013-01-10 17:05:00,
2013-01-10 07:11:00,65.9,63.2,30.01,SSE,155,3.0,6.0,91,0.00,,,0.01,Wunderground v.1.15,2013-01-10 17:11:00,
2013-01-10 07:16:00,66.0,63.0,30.01,South,169,4.0,11.0,90,0.00,,,0.01,Wunderground v.1.15,2013-01-10 17:16:00,
2013-01-10 07:22:00,66.2,63.2,30.01,SE,144,4.0,8.0,90,0.00,,,0.01,Wunderground v.1.15,2013-01-10 17:22:00,
2013-01-10 08:03:00,66.5,63.5,30.01,SSE,162,3.0,8.0,90,0.00,,,0.01,Wunderground v.1.15,2013-01-10 18:03:00,
2013-01-10 08:09:00,66.7,63.7,30.02,SSE,165,3.0,3.0,90,0.00,,,0.01,Wunderground v.1.15,2013-01-10 18:09:00,
2013-01-10 08:14:00,66.9,64.2,30.02,SE,143,3.0,8.0,91,0.00,,,0.01,Wunderground v.1.15,2013-01-10 18:14:00,
2013-01-10 08:20:00,67.3,64.6,30.01,SE,145,4.0,12.0,91,0.00,,,0.01,Wunderground v.1.15,2013-01-10 18:20:00,
2013-01-10 08:25:00,67.8,65.1,30.02,SSE,148,5.0,12.0,91,0.00,,,0.01,Wunderground v.1.15,2013-01-10 18:25:00,
2013-01-10 08:31:00,68.1,65.4,30.02,SE,144,5.0,9.0,91,0.00,,,0.01,Wunderground v.1.15,2013-01-10 18:31:00,
2013-01-10 08:37:00,68.3,65.3,30.02,SE,146,4.0,14.0,90,0.00,,,0.01,Wunderground v.1.15,2013-01-10 18:37:00,
2013-01-10 08:42:00,68.5,65.1,30.02,SE,134,4.0,14.0,89,0.00,,,0.01,Wunderground v.1.15,2013-01-10 18:42:00,
2013-01-10 08:48:00,68.8,65.4,30.02,SE,138,5.0,14.0,89,0.00,,,0.01,Wunderground v.1.15,2013-01-10 18:48:00,
2013-01-10 08:53:00,69.2,65.8,30.02,South,176,6.0,14.0,89,0.00,,,0.01,Wunderground v.1.15,2013-01-10 18:53:00,
2013-01-10 08:59:00,69.5,65.1,30.02,South,174,7.0,7.0,86,0.00,,,0.01,Wunderground v.1.15,2013-01-10 18:59:00,
2013-01-10 09:04:00,69.7,65.3,30.02,SSE,148,7.0,14.0,86,0.00,,,0.01,Wunderground v.1.15,2013-01-10 19:04:00,
2013-01-10 09:10:00,70.1,65.7,30.03,East,100,6.0,6.0,86,0.00,,,0.01,Wunderground v.1.15,2013-01-10 19:10:00,
2013-01-10 09:16:00,70.0,65.3,30.03,SE,145,5.0,14.0,85,0.00,,,0.01,Wunderground v.1.15,2013-01-10 19:16:00,
2013-01-10 09:21:00,70.1,65.4,30.03,SSE,167,5.0,6.0,85,0.00,,,0.01,Wunderground v.1.15,2013-01-10 19:21:00,
2013-01-10 09:27:00,70.6,66.2,30.04,SSE,149,5.0,14.0,86,0.00,,,0.01,Wunderground v.1.15,2013-01-10 19:27:00,
2013-01-10 09:32:00,71.2,66.1,30.04,SE,144,5.0,14.0,84,0.00,,,0.01,Wunderground v.1.15,2013-01-10 19:32:00,
2013-01-10 09:38:00,72.0,66.9,30.04,ESE,123,5.0,14.0,84,0.00,,,0.01,Wunderground v.1.15,2013-01-10 19:38:00,
2013-01-10 09:44:00,72.3,66.1,30.04,SE,138,5.0,13.0,81,0.00,,,0.01,Wunderground v.1.15,2013-01-10 19:44:00,
2013-01-10 09:49:00,72.4,66.2,30.03,SSE,154,6.0,13.0,81,0.00,,,0.01,Wunderground v.1.15,2013-01-10 19:49:00,
2013-01-10 09:55:00,72.6,66.4,30.03,SSE,157,6.0,13.0,81,0.00,,,0.01,Wunderground v.1.15,2013-01-10 19:55:00,
2013-01-10 10:01:00,72.8,66.3,30.03,SSE,163,6.0,13.0,80,0.00,,,0.01,Wunderground v.1.15,2013-01-10 20:01:00,
2013-01-10 10:06:00,73.0,66.5,30.04,SSE,156,7.0,16.0,80,0.00,,,0.01,Wunderground v.1.15,2013-01-10 20:06:00,
2013-01-10 10:12:00,73.3,66.8,30.04,SE,136,6.0,16.0,80,0.00,,,0.01,Wunderground v.1.15,2013-01-10 20:12:00,
2013-01-10 10:17:00,73.7,67.1,30.04,South,170,6.0,16.0,80,0.00,,,0.01,Wunderground v.1.15,2013-01-10 20:17:00,
2013-01-10 10:23:00,74.0,66.7,30.03,South,178,5.0,16.0,78,0.00,,,0.01,Wunderground v.1.15,2013-01-10 20:23:00,
2013-01-10 10:29:00,74.2,66.5,30.03,South,186,6.0,16.0,77,0.00,,,0.01,Wunderground v.1.15,2013-01-10 20:29:00,
2013-01-10 10:35:00,74.0,65.6,30.03,South,169,7.0,23.0,75,0.00,,,0.01,Wunderground v.1.15,2013-01-10 20:35:00,
2013-01-10 10:40:00,73.7,65.3,30.03,SE,138,7.0,23.0,75,0.00,,,0.01,Wunderground v.1.15,2013-01-10 20:40:00,
2013-01-10 10:46:00,73.8,65.8,30.02,SE,142,8.0,23.0,76,0.00,,,0.01,Wunderground v.1.15,2013-01-10 20:46:00,
2013-01-10 10:51:00,74.0,66.3,30.02,SSW,200,7.0,23.0,77,0.00,,,0.01,Wunderground v.1.15,2013-01-10 20:51:00,
2013-01-10 10:57:00,74.3,66.2,30.02,South,171,7.0,23.0,76,0.00,,,0.01,Wunderground v.1.15,2013-01-10 20:57:00,
2013-01-10 11:02:00,74.3,66.6,30.02,SSE,155,8.0,23.0,77,0.00,,,0.01,Wunderground v.1.15,2013-01-10 21:02:00,
2013-01-10 11:07:00,74.5,66.1,30.02,SE,142,7.0,23.0,75,0.00,,,0.01,Wunderground v.1.15,2013-01-10 21:07:00,
2013-01-10 11:13:00,74.8,65.6,30.02,SE,145,7.0,17.0,73,0.00,,,0.01,Wunderground v.1.15,2013-01-10 21:13:00,
2013-01-10 11:18:00,75.0,65.8,30.02,SSE,149,8.0,17.0,73,0.00,,,0.01,Wunderground v.1.15,2013-01-10 21:18:00,
2013-01-10 11:24:00,75.2,66.7,30.02,South,188,7.0,17.0,75,0.00,,,0.01,Wunderground v.1.15,2013-01-10 21:24:00,
2013-01-10 11:29:00,75.5,67.4,30.02,SSE,148,6.0,17.0,76,0.00,,,0.01,Wunderground v.1.15,2013-01-10 21:29:00,
2013-01-10 11:35:00,75.3,66.8,30.01,ESE,105,7.0,17.0,75,0.00,,,0.01,Wunderground v.1.15,2013-01-10 21:35:00,
2013-01-10 11:41:00,75.0,66.5,30.02,SE,135,8.0,17.0,75,0.00,,,0.01,Wunderground v.1.15,2013-01-10 21:41:00,
2013-01-10 11:47:00,74.5,65.7,30.02,SSE,156,8.0,17.0,74,0.00,,,0.01,Wunderground v.1.15,2013-01-10 21:47:00,
2013-01-10 11:52:00,74.1,65.3,30.02,SSE,159,9.0,17.0,74,0.00,,,0.01,Wunderground v.1.15,2013-01-10 21:52:00,
2013-01-10 11:58:00,74.4,65.6,30.02,SSE,148,8.0,17.0,74,0.00,,,0.01,Wunderground v.1.15,2013-01-10 21:58:00,
2013-01-10 12:03:00,74.8,66.3,30.02,South,186,6.0,24.0,75,0.00,,,0.01,Wunderground v.1.15,2013-01-10 22:03:00,
2013-01-10 12:09:00,74.7,66.2,30.01,SE,140,6.0,24.0,75,0.00,,,0.01,Wunderground v.1.15,2013-01-10 22:09:00,
2013-01-10 12:15:00,74.7,65.9,30.01,East,84,6.0,24.0,74,0.00,,,0.01,Wunderground v.1.15,2013-01-10 22:15:00,
2013-01-10 12:20:00,74.4,66.0,30.00,East,91,6.0,6.0,75,0.00,,,0.01,Wunderground v.1.15,2013-01-10 22:20:00,
2013-01-10 12:26:00,74.1,66.4,30.00,East,86,6.0,24.0,77,0.00,,,0.01,Wunderground v.1.15,2013-01-10 22:26:00,
2013-01-10 12:32:00,74.5,66.8,30.00,ESE,103,5.0,24.0,77,0.00,,,0.01,Wunderground v.1.15,2013-01-10 22:32:00,
2013-01-10 12:38:00,74.7,67.0,29.99,ESE,114,6.0,24.0,77,0.00,,,0.01,Wunderground v.1.15,2013-01-10 22:38:00,
2013-01-10 12:44:00,74.9,66.8,29.99,East,87,6.0,17.0,76,0.00,,,0.01,Wunderground v.1.15,2013-01-10 22:44:00,
2013-01-10 12:50:00,75.0,66.9,29.98,ESE,103,6.0,6.0,76,0.00,,,0.01,Wunderground v.1.15,2013-01-10 22:50:00,
2013-01-10 12:56:00,75.1,66.6,29.98,ESE,115,6.0,17.0,75,0.00,,,0.01,Wunderground v.1.15,2013-01-10 22:56:00,
2013-01-10 13:01:00,75.4,66.5,29.98,SE,145,7.0,7.0,74,0.00,,,0.01,Wunderground v.1.15,2013-01-10 23:01:00,
2013-01-10 13:07:00,75.7,66.4,29.98,ESE,117,8.0,17.0,73,0.00,,,0.01,Wunderground v.1.15,2013-01-10 23:07:00,
2013-01-10 13:13:00,75.7,66.4,29.98,SSE,160,6.0,16.0,73,0.00,,,0.01,Wunderground v.1.15,2013-01-10 23:13:00,
2013-01-10 13:18:00,75.7,66.0,29.97,NE,53,6.0,16.0,72,0.00,,,0.01,Wunderground v.1.15,2013-01-10 23:18:00,
2013-01-10 13:24:00,75.8,66.5,29.97,ESE,113,7.0,16.0,73,0.00,,,0.01,Wunderground v.1.15,2013-01-10 23:24:00,
2013-01-10 13:30:00,75.9,65.8,29.97,SE,129,7.0,7.0,71,0.00,,,0.01,Wunderground v.1.15,2013-01-10 23:30:00,
2013-01-10 13:36:00,76.6,66.9,29.97,SE,145,6.0,17.0,72,0.00,,,0.01,Wunderground v.1.15,2013-01-10 23:36:00,
2013-01-10 13:42:00,77.0,66.5,29.96,SSE,147,5.0,17.0,70,0.00,,,0.01,Wunderground v.1.15,2013-01-10 23:42:00,
2013-01-10 13:47:00,76.9,65.1,29.96,ESE,110,4.0,17.0,67,0.00,,,0.01,Wunderground v.1.15,2013-01-10 23:47:00,
2013-01-10 13:53:00,76.6,66.1,29.96,NE,51,5.0,17.0,70,0.00,,,0.01,Wunderground v.1.15,2013-01-10 23:53:00,
2013-01-10 13:58:00,76.4,65.9,29.96,East,88,5.0,17.0,70,0.00,,,0.01,Wunderground v.1.15,2013-01-10 23:58:00,
2013-01-10 14:03:00,76.4,67.1,29.96,ESE,119,6.0,17.0,73,0.00,,,0.01,Wunderground v.1.15,2013-01-11 00:03:00,
2013-01-10 14:09:00,76.2,66.9,29.96,SSE,155,6.0,17.0,73,0.00,,,0.01,Wunderground v.1.15,2013-01-11 00:09:00,
2013-01-10 14:14:00,76.1,66.4,29.96,East,98,6.0,13.0,72,0.00,,,0.01,Wunderground v.1.15,2013-01-11 00:14:00,
2013-01-10 14:20:00,76.0,66.7,29.96,ESE,106,6.0,6.0,73,0.00,,,0.01,Wunderground v.1.15,2013-01-11 00:20:00,
2013-01-10 14:26:00,76.4,66.7,29.96,ESE,118,5.0,13.0,72,0.00,,,0.01,Wunderground v.1.15,2013-01-11 00:26:00,
2013-01-10 14:31:00,76.6,67.3,29.96,SSE,162,6.0,13.0,73,0.00,,,0.01,Wunderground v.1.15,2013-01-11 00:31:00,
2013-01-10 14:37:00,76.5,66.8,29.97,East,96,6.0,15.0,72,0.00,,,0.01,Wunderground v.1.15,2013-01-11 00:37:00,
2013-01-10 14:42:00,75.8,65.3,29.96,SE,135,6.0,15.0,70,0.00,,,0.01,Wunderground v.1.15,2013-01-11 00:42:00,
2013-01-10 14:48:00,74.8,65.2,29.96,ESE,104,6.0,15.0,72,0.00,,,0.01,Wunderground v.1.15,2013-01-11 00:48:00,
2013-01-10 14:54:00,74.2,65.4,29.96,East,86,5.0,15.0,74,0.00,,,0.01,Wunderground v.1.15,2013-01-11 00:54:00,
2013-01-10 14:59:00,74.1,66.0,29.96,ENE,71,5.0,15.0,76,0.00,,,0.01,Wunderground v.1.15,2013-01-11 00:59:00,
2013-01-10 15:05:00,74.2,65.8,29.96,ESE,115,6.0,15.0,75,0.00,,,0.01,Wunderground v.1.15,2013-01-11 01:05:00,
2013-01-10 15:10:00,74.1,66.0,29.96,SE,137,5.0,5.0,76,0.00,,,0.01,Wunderground v.1.15,2013-01-11 01:10:00,
2013-01-10 15:16:00,74.0,66.3,29.96,East,85,4.0,15.0,77,0.00,,,0.01,Wunderground v.1.15,2013-01-11 01:16:00,
2013-01-10 15:22:00,73.8,65.8,29.97,SE,134,5.0,15.0,76,0.00,,,0.01,Wunderground v.1.15,2013-01-11 01:22:00,
2013-01-10 15:28:00,73.6,65.9,29.97,SE,144,5.0,15.0,77,0.00,,,0.01,Wunderground v.1.15,2013-01-11 01:28:00,
2013-01-10 15:33:00,73.4,66.1,29.97,SSE,153,6.0,15.0,78,0.00,,,0.01,Wunderground v.1.15,2013-01-11 01:33:00,
2013-01-10 15:39:00,73.2,65.9,29.97,SSE,157,6.0,15.0,78,0.00,,,0.01,Wunderground v.1.15,2013-01-11 01:39:00,
2013-01-10 15:45:00,73.0,65.7,29.97,ESE,122,5.0,14.0,78,0.00,,,0.01,Wunderground v.1.15,2013-01-11 01:45:00,
2013-01-10 15:50:00,72.7,65.4,29.97,SE,137,6.0,6.0,78,0.00,,,0.01,Wunderground v.1.15,2013-01-11 01:50:00,
2013-01-10 15:56:00,72.5,65.6,29.97,East,90,5.0,14.0,79,0.00,,,0.01,Wunderground v.1.15,2013-01-11 01:56:00,
2013-01-10 16:02:00,72.4,65.9,29.97,SE,136,4.0,14.0,80,0.00,,,0.01,Wunderground v.1.15,2013-01-11 02:02:00,
2013-01-10 16:07:00,72.4,66.2,29.97,ENE,66,4.0,14.0,81,0.00,,,0.01,Wunderground v.1.15,2013-01-11 02:07:00,
2013-01-10 16:13:00,72.4,66.6,29.97,ENE,68,4.0,13.0,82,0.00,,,0.01,Wunderground v.1.15,2013-01-11 02:13:00,
2013-01-10 16:19:00,72.4,66.9,29.97,East,100,3.0,13.0,83,0.00,,,0.01,Wunderground v.1.15,2013-01-11 02:19:00,
2013-01-10 16:24:00,72.4,67.3,29.97,ENE,71,3.0,13.0,84,0.00,,,0.01,Wunderground v.1.15,2013-01-11 02:24:00,
2013-01-10 16:30:00,72.2,67.1,29.97,East,97,3.0,13.0,84,0.00,,,0.01,Wunderground v.1.15,2013-01-11 02:30:00,
2013-01-10 16:36:00,72.2,67.1,29.97,ESE,114,3.0,13.0,84,0.00,,,0.01,Wunderground v.1.15,2013-01-11 02:36:00,
2013-01-10 16:41:00,72.1,67.0,29.97,SE,132,3.0,7.0,84,0.00,,,0.01,Wunderground v.1.15,2013-01-11 02:41:00,
2013-01-10 16:47:00,72.0,66.6,29.98,East,98,3.0,14.0,83,0.00,,,0.01,Wunderground v.1.15,2013-01-11 02:47:00,
2013-01-10 16:52:00,71.9,66.8,29.98,ESE,118,4.0,11.0,84,0.00,,,0.01,Wunderground v.1.15,2013-01-11 02:52:00,
2013-01-10 16:58:00,71.7,66.9,29.98,East,92,3.0,11.0,85,0.00,,,0.01,Wunderground v.1.15,2013-01-11 02:58:00,
2013-01-10 17:03:00,71.5,67.1,29.98,East,94,4.0,11.0,86,0.00,,,0.01,Wunderground v.1.15,2013-01-11 03:03:00,
2013-01-10 17:09:00,71.3,66.9,29.98,East,98,4.0,11.0,86,0.00,,,0.01,Wunderground v.1.15,2013-01-11 03:09:00,
2013-01-10 17:14:00,71.2,67.1,29.98,ESE,104,4.0,10.0,87,0.00,,,0.01,Wunderground v.1.15,2013-01-11 03:14:00,
2013-01-10 17:20:00,71.0,66.9,29.98,ESE,115,3.0,3.0,87,0.00,,,0.01,Wunderground v.1.15,2013-01-11 03:20:00,
2013-01-10 17:26:00,70.9,66.8,29.98,SSE,150,2.0,10.0,87,0.00,,,0.01,Wunderground v.1.15,2013-01-11 03:26:00,
2013-01-10 17:32:00,70.8,67.1,29.98,SSE,148,1.0,10.0,88,0.00,,,0.01,Wunderground v.1.15,2013-01-11 03:32:00,
2013-01-10 17:37:00,70.7,67.0,29.99,SE,146,1.0,10.0,88,0.00,,,0.01,Wunderground v.1.15,2013-01-11 03:37:00,
2013-01-10 17:43:00,70.6,66.9,29.99,SE,146,1.0,7.0,88,0.00,,,0.01,Wunderground v.1.15,2013-01-11 03:43:00,
2013-01-10 17:49:00,70.5,66.8,29.99,SE,132,3.0,7.0,88,0.00,,,0.01,Wunderground v.1.15,2013-01-11 03:49:00,
2013-01-10 17:54:00,70.4,66.7,29.98,SE,137,3.0,7.0,88,0.00,,,0.01,Wunderground v.1.15,2013-01-11 03:54:00,
2013-01-10 18:00:00,70.3,66.6,29.99,SE,137,1.0,7.0,88,0.00,,,0.01,Wunderground v.1.15,2013-01-11 04:00:00,
2013-01-10 18:06:00,70.2,66.5,29.99,SE,146,1.0,8.0,88,0.00,,,0.01,Wunderground v.1.15,2013-01-11 04:06:00,
2013-01-10 18:11:00,70.1,66.4,29.99,SE,146,1.0,8.0,88,0.00,,,0.01,Wunderground v.1.15,2013-01-11 04:11:00,
2013-01-10 18:17:00,69.9,66.2,29.99,SE,146,1.0,8.0,88,0.00,,,0.01,Wunderground v.1.15,2013-01-11 04:17:00,
2013-01-10 18:23:00,69.6,66.2,29.99,SSE,147,2.0,8.0,89,0.00,,,0.01,Wunderground v.1.15,2013-01-11 04:23:00,
2013-01-10 18:28:00,69.5,66.1,29.99,SSE,148,1.0,8.0,89,0.00,,,0.01,Wunderground v.1.15,2013-01-11 04:28:00,
2013-01-10 18:34:00,69.3,65.9,29.99,SSE,148,1.0,8.0,89,0.00,,,0.01,Wunderground v.1.15,2013-01-11 04:34:00,
2013-01-10 18:40:00,69.0,65.6,30.00,SSE,148,2.0,7.0,89,0.00,,,0.01,Wunderground v.1.15,2013-01-11 04:40:00,
2013-01-10 18:45:00,68.9,65.5,29.99,SSE,147,2.0,7.0,89,0.00,,,0.01,Wunderground v.1.15,2013-01-11 04:45:00,
2013-01-10 18:51:00,68.9,65.8,29.99,SSE,152,3.0,7.0,90,0.00,,,0.01,Wunderground v.1.15,2013-01-11 04:51:00,
2013-01-10 18:56:00,68.8,65.7,30.00,ESE,105,3.0,7.0,90,0.00,,,0.01,Wunderground v.1.15,2013-01-11 04:56:00,
2013-01-10 19:02:00,68.9,66.2,29.99,East,82,5.0,7.0,91,0.00,,,0.01,Wunderground v.1.15,2013-01-11 05:02:00,
2013-01-10 19:03:00,68.9,66.2,30.00,SE,135,5.0,8.0,91,0.00,,,0.01,Wunderground v.1.15,2013-01-11 05:03:00,
2013-01-10 19:07:00,68.8,66.1,30.00,SSE,157,5.0,11.0,91,0.00,,,0.01,Wunderground v.1.15,2013-01-11 05:07:00,
2013-01-10 19:08:00,68.8,66.1,30.00,SSE,150,5.0,11.0,91,0.00,,,0.01,Wunderground v.1.15,2013-01-11 05:08:00,
2013-01-10 19:14:00,68.8,66.1,30.00,SE,145,5.0,11.0,91,0.00,,,0.01,Wunderground v.1.15,2013-01-11 05:14:00,
2013-01-10 19:19:00,68.8,65.7,30.00,SSE,148,4.0,11.0,90,0.00,,,0.01,Wunderground v.1.15,2013-01-11 05:19:00,
2013-01-10 19:25:00,68.8,65.7,30.00,SSE,161,4.0,11.0,90,0.00,,,0.01,Wunderground v.1.15,2013-01-11 05:25:00,
2013-01-10 19:30:00,68.9,65.8,30.00,SE,146,4.0,11.0,90,0.00,,,0.01,Wunderground v.1.15,2013-01-11 05:30:00,
2013-01-10 19:36:00,68.9,65.8,30.00,SE,132,5.0,12.0,90,0.00,,,0.01,Wunderground v.1.15,2013-01-11 05:36:00,
2013-01-10 19:42:00,68.9,65.8,30.00,SSE,166,4.0,12.0,90,0.00,,,0.01,Wunderground v.1.15,2013-01-11 05:42:00,
2013-01-10 19:47:00,69.0,65.9,30.01,SSE,150,5.0,12.0,90,0.00,,,0.01,Wunderground v.1.15,2013-01-11 05:47:00,
2013-01-10 19:53:00,69.0,65.9,30.01,SSE,157,5.0,12.0,90,0.00,,,0.01,Wunderground v.1.15,2013-01-11 05:53:00,
2013-01-10 19:58:00,69.0,65.9,30.01,South,173,4.0,12.0,90,0.00,,,0.01,Wunderground v.1.15,2013-01-11 05:58:00,
2013-01-10 20:03:00,68.9,66.2,30.01,ESE,103,4.0,12.0,91,0.00,,,0.01,Wunderground v.1.15,2013-01-11 06:03:00,
2013-01-10 20:09:00,68.9,66.2,30.01,SE,142,5.0,12.0,91,0.00,,,0.01,Wunderground v.1.15,2013-01-11 06:09:00,
2013-01-10 20:15:00,68.9,66.2,30.02,SE,130,5.0,10.0,91,0.00,,,0.01,Wunderground v.1.15,2013-01-11 06:15:00,
2013-01-10 20:21:00,68.9,66.2,30.01,SE,146,4.0,8.0,91,0.00,,,0.01,Wunderground v.1.15,2013-01-11 06:21:00,
2013-01-10 20:26:00,68.8,66.1,30.02,SE,142,5.0,8.0,91,0.00,,,0.01,Wunderground v.1.15,2013-01-11 06:26:00,
2013-01-10 20:32:00,68.8,66.1,30.02,SE,142,4.0,8.0,91,0.00,,,0.01,Wunderground v.1.15,2013-01-11 06:32:00,
2013-01-10 20:38:00,68.7,66.0,30.02,SE,142,2.0,12.0,91,0.00,,,0.01,Wunderground v.1.15,2013-01-11 06:38:00,
2013-01-10 20:43:00,68.7,66.0,30.02,SSE,155,2.0,12.0,91,0.00,,,0.01,Wunderground v.1.15,2013-01-11 06:43:00,
2013-01-10 20:49:00,68.7,66.0,30.02,SE,146,5.0,12.0,91,0.00,,,0.01,Wunderground v.1.15,2013-01-11 06:49:00,
2013-01-10 20:54:00,68.7,66.0,30.02,SSE,164,4.0,12.0,91,0.00,,,0.01,Wunderground v.1.15,2013-01-11 06:54:00,
2013-01-10 21:00:00,68.6,65.5,30.02,South,173,3.0,3.0,90,0.00,,,0.01,Wunderground v.1.15,2013-01-11 07:00:00,
2013-01-10 21:06:00,68.6,65.5,30.02,SSE,167,3.0,12.0,90,0.00,,,0.01,Wunderground v.1.15,2013-01-11 07:06:00,
2013-01-10 21:11:00,68.6,65.5,30.02,SE,138,3.0,6.0,90,0.00,,,0.01,Wunderground v.1.15,2013-01-11 07:11:00,
2013-01-10 21:17:00,68.7,65.6,30.02,SE,141,3.0,10.0,90,0.00,,,0.01,Wunderground v.1.15,2013-01-11 07:17:00,
2013-01-10 21:22:00,68.7,65.6,30.02,SSE,161,3.0,10.0,90,0.00,,,0.01,Wunderground v.1.15,2013-01-11 07:22:00,
2013-01-10 21:28:00,68.6,65.5,30.02,SSE,168,3.0,10.0,90,0.00,,,0.01,Wunderground v.1.15,2013-01-11 07:28:00,
2013-01-10 21:33:00,68.6,65.5,30.02,South,173,3.0,11.0,90,0.00,,,0.01,Wunderground v.1.15,2013-01-11 07:33:00,
2013-01-10 21:39:00,68.5,65.4,30.03,South,169,2.0,11.0,90,0.00,,,0.01,Wunderground v.1.15,2013-01-11 07:39:00,
2013-01-10 21:45:00,68.4,65.7,30.02,South,184,2.0,11.0,91,0.00,,,0.01,Wunderground v.1.15,2013-01-11 07:45:00,
2013-01-10 21:50:00,68.3,65.6,30.03,SSE,148,2.0,11.0,91,0.00,,,0.01,Wunderground v.1.15,2013-01-11 07:50:00,
2013-01-10 21:56:00,68.3,65.6,30.03,SSE,159,3.0,11.0,91,0.00,,,0.01,Wunderground v.1.15,2013-01-11 07:56:00,
2013-01-10 22:01:00,68.3,65.6,30.02,South,186,3.0,11.0,91,0.00,,,0.01,Wunderground v.1.15,2013-01-11 08:01:00,
2013-01-10 22:07:00,68.3,65.3,30.03,South,173,2.0,11.0,90,0.00,,,0.01,Wunderground v.1.15,2013-01-11 08:07:00,
2013-01-10 22:13:00,68.3,65.6,30.03,SE,140,3.0,10.0,91,0.00,,,0.01,Wunderground v.1.15,2013-01-11 08:13:00,
2013-01-10 22:18:00,68.2,65.5,30.03,SSE,149,3.0,10.0,91,0.00,,,0.01,Wunderground v.1.15,2013-01-11 08:18:00,
2013-01-10 22:24:00,68.2,65.5,30.02,SSE,152,3.0,10.0,91,0.00,,,0.01,Wunderground v.1.15,2013-01-11 08:24:00,
2013-01-10 22:29:00,68.1,65.4,30.03,SE,136,3.0,10.0,91,0.00,,,0.01,Wunderground v.1.15,2013-01-11 08:29:00,
2013-01-10 22:35:00,68.2,65.8,30.02,SSE,147,4.0,10.0,92,0.00,,,0.01,Wunderground v.1.15,2013-01-11 08:35:00,
2013-01-10 22:41:00,68.2,65.8,30.02,SSE,148,3.0,9.0,92,0.00,,,0.01,Wunderground v.1.15,2013-01-11 08:41:00,
2013-01-10 22:47:00,68.1,65.7,30.03,SSE,154,2.0,9.0,92,0.00,,,0.01,Wunderground v.1.15,2013-01-11 08:47:00,
2013-01-10 22:53:00,68.1,65.7,30.02,SSE,155,1.0,9.0,92,0.00,,,0.01,Wunderground v.1.15,2013-01-11 08:53:00,
2013-01-10 22:58:00,68.0,65.6,30.03,SSE,160,1.0,9.0,92,0.00,,,0.01,Wunderground v.1.15,2013-01-11 08:58:00,
2013-01-10 23:03:00,68.0,65.6,30.02,SSE,150,2.0,9.0,92,0.00,,,0.01,Wunderground v.1.15,2013-01-11 09:03:00,
2013-01-10 23:09:00,68.0,65.6,30.03,SE,141,3.0,9.0,92,0.00,,,0.01,Wunderground v.1.15,2013-01-11 09:09:00,
2013-01-10 23:15:00,68.0,65.6,30.02,SE,141,3.0,7.0,92,0.00,,,0.01,Wunderground v.1.15,2013-01-11 09:15:00,
2013-01-10 23:21:00,68.0,65.6,30.02,SE,142,3.0,7.0,92,0.00,,,0.01,Wunderground v.1.15,2013-01-11 09:21:00,
2013-01-10 23:26:00,68.0,65.6,30.02,SE,143,2.0,7.0,92,0.00,,,0.01,Wunderground v.1.15,2013-01-11 09:26:00,
2013-01-10 23:32:00,68.0,65.9,30.02,SE,143,2.0,7.0,93,0.00,,,0.01,Wunderground v.1.15,2013-01-11 09:32:00,
2013-01-10 23:37:00,68.0,65.9,30.01,SSE,153,3.0,7.0,93,0.00,,,0.01,Wunderground v.1.15,2013-01-11 09:37:00,
2013-01-10 23:43:00,68.0,65.9,30.01,SE,141,4.0,6.0,93,0.00,,,0.01,Wunderground v.1.15,2013-01-11 09:43:00,
2013-01-10 23:49:00,67.9,65.8,30.01,SE,142,3.0,6.0,93,0.00,,,0.01,Wunderground v.1.15,2013-01-11 09:49:00,
2013-01-10 23:55:00,67.9,65.8,30.01,SE,142,4.0,9.0,93,0.00,,,0.01,Wunderground v.1.15,2013-01-11 09:55:00,